User: anonymous   Login
Location: Ariel
(45.9570°N, 122.5700°W)
Time: 19:50:03
(UTC-07:00)
Language:

Explorer 7 - Orbit

View from above orbital plane
View from above orbital plane
View from above satellite
View from above satellite

Ground track
Ground track

The orbit data is extracted from the following two-line orbital elements,

1    22U 59009A   19203.16814538 -.00000142  00000-0  13063-4 0  9993
2    22  50.2822 216.1672 0139994  73.2274 288.3979 14.94886395175769
Epoch (UTC): 22 July 2019 04:02:07
Eccentricity: 0.0139994
inclination: 50.2822°
perigee height: 485 km
apogee height: 680 km
right ascension of ascending node: 216.1672°
argument of perigee: 73.2274°
revolutions per day: 14.94886395
mean anomaly at epoch: 288.3979°
orbit number at epoch: 17576

The dashed part of the orbit path shows where the satellite is in the earth's shadow,  

DLR